Погода в Онежском

Россия / Республика Карелия     61°59′11″N   35°53′51″E
темп.,
°C
ветер,
м/с
пор.,
м/с
влажн.,
%
обл.,
%
осадки,
мм/ч
давл.,
гПа
погр.,
м
15 августа, пн
пн1500:00+14ююв11625 0.0 102212
03:00+14ююв116810 0.0 102213
06:00+14юв11705 0.0 102222
09:00+21ю12525 0.0 1023310
12:00+25ююз224219 0.0 10231123
15:00+26юз234236 0.0 10221351
18:00+26юв12495 0.0 1021445
21:00+21вюв2263100 0.0 102141
16 августа, вт
вт1600:00+20юв227499 0.0 102244
03:00+18юв258484 0.0 1023123
06:00+18юв278296 0.0 1022167
09:00+22ююв3565100 0.0 1023317
12:00+24ю355677 0.0 1022475
15:00+27ю354465 0.0 10221020
18:00+26ююв2550100 0.0 1021362
21:00+20юв236875 0.0 102150
17 августа, ср
ср1700:00+19юв277640 0.0 1022131
03:00+17юв238128 0.0 102254
06:00+18юв248225 0.0 1021107
09:00+23ю34601 0.0 1021334
12:00+26ю35460 0.0 1021762
15:00+28ю35390 0.0 10201176
18:00+26ю254614 0.0 1020458
21:00+19ююв22721 0.0 102029
18 августа, чт
чт1800:00+18ююв25771 0.0 1020105
03:00+19юв257958 0.0 1020118
06:00+17ююв258377 0.0 1021107
09:00+22ю2463100 0.0 1021297
12:00+25ю2448100 0.0 1021757
15:00+27ююз343950 0.0 10211555
18:00+26ююз23475 0.0 1021291
21:00+20вюв226290 0.0 102112
19 августа, пт
пт1900:00+18юв227315 0.0 102220
03:00+17юв22815 0.0 102230
06:00+17вюв25835 0.0 102397
09:00+23ююв35605 0.0 1023420
12:00+26ю33475 0.0 10231065
15:00+28ююз33427 0.0 10231563
18:00+26ю235043 0.0 1023403
21:00+21вюв257222 0.0 102474